Weather History for Sidney-Richland, MT

Change the Weather History Date:

Friday, January 24, 2014

  Actual Average Record
Temperature  
Mean Temperature 38 °F -  
Max Temperature 44 °F 28 °F 55 °F (1968)
Min Temperature 33 °F 8 °F -38 °F (1920)
Degree Days  
Heating Degree Days 26    
Moisture  
Dew Point 32 °F    
Average Humidity 75    
Maximum Humidity 87    
Minimum Humidity 61    
Precipitation  
Precipitation 0.00 in - - ()
Sea Level Pressure  
Sea Level Pressure 29.92 in    
Wind  
Wind Speed 17 mph (WNW)    
Max Wind Speed 26 mph    
Max Gust Speed 37 mph    
Visibility 10 miles    
Events      
Averages and records for this station are not official NWS values.
T = Trace of Precipitation, MM = Missing Value Source: NWS Daily Summary

Daily Weather History Graph

Daily Weather History Graph

Search for Another Location

Airport:

Trip Planner

Search our weather history database for the weather conditions in past years. The results will help you decide how hot, cold, wet, or windy it might be!

Date:

Astronomy

Jan. 24, 2014 Rise Set
Actual Time 7:32 AM MST 4:45 PM MST
Civil Twilight 6:58 AM MST 5:19 PM MST
Nautical Twilight 6:21 AM MST 5:57 PM MST
Astronomical Twilight 5:44 AM MST 6:33 PM MST
Moon 12:56 AM MST (1/24) 11:10 AM MST (1/24)
Length of Visible Light 10h 20m
Length of Day
9h 12m
Last Quarter, 44% of the Moon is Illuminated
Jan 24
Last Quarter
Jan 30
New
Feb 6
First Quarter
Feb 14
Full
Feb 22
Last Quarter

Hourly Weather History & Observations

Time (MST) Temp. Windchill Dew Point Humidity Pressure Visibility Wind Dir Wind Speed Gust Speed Precip Events Conditions
12:15 AM 35.6 °F 25.9 °F 26.6 °F 70% 29.99 in 10.0 mi NW 16.1 mph 19.6 mph N/A   Overcast
12:35 AM 33.8 °F 23.2 °F 26.6 °F 75% 30.00 in 10.0 mi NW 17.3 mph - N/A   Mostly Cloudy
12:55 AM 33.8 °F 23.5 °F 26.6 °F 75% 30.00 in 10.0 mi NW 16.1 mph - N/A   Clear
1:15 AM 33.8 °F 22.2 °F 26.6 °F 75% 29.99 in 10.0 mi WNW 20.7 mph - N/A   Clear
1:55 AM 33.8 °F 23.9 °F 26.6 °F 75% 29.99 in 10.0 mi WNW 15.0 mph - N/A   Clear
2:15 AM 33.8 °F 24.3 °F 26.6 °F 75% 30.01 in 10.0 mi WNW 13.8 mph 19.6 mph N/A   Clear
2:35 AM 33.8 °F 24.8 °F 28.4 °F 81% 30.02 in 10.0 mi WNW 12.7 mph - N/A   Clear
2:55 AM 33.8 °F 24.8 °F 28.4 °F 81% 30.01 in 10.0 mi WNW 12.7 mph 18.4 mph N/A   Clear
3:15 AM 33.8 °F 24.8 °F 28.4 °F 81% 30.00 in 10.0 mi West 12.7 mph - N/A   Clear
3:35 AM 33.8 °F 25.3 °F 28.4 °F 81% 30.00 in 10.0 mi West 11.5 mph - N/A   Mostly Cloudy
3:55 AM 33.8 °F 24.3 °F 28.4 °F 81% 29.99 in 10.0 mi WNW 13.8 mph 19.6 mph N/A   Overcast
4:15 AM 33.8 °F 24.3 °F 28.4 °F 81% 29.98 in 10.0 mi West 13.8 mph - N/A   Overcast
4:35 AM 33.8 °F 24.8 °F 28.4 °F 81% 29.98 in 10.0 mi WNW 12.7 mph - N/A   Overcast
4:55 AM 33.8 °F 24.8 °F 28.4 °F 81% 29.97 in 10.0 mi West 12.7 mph - N/A   Overcast
5:15 AM 35.6 °F 28.6 °F 28.4 °F 75% 29.96 in 10.0 mi West 9.2 mph - N/A   Overcast
5:35 AM 35.6 °F 26.6 °F 30.2 °F 81% 29.95 in 10.0 mi WNW 13.8 mph 19.6 mph N/A   Scattered Clouds
5:55 AM 35.6 °F 28.6 °F 30.2 °F 81% 29.94 in 10.0 mi West 9.2 mph 17.3 mph N/A   Mostly Cloudy
6:15 AM 37.4 °F 28.5 °F 30.2 °F 75% 29.93 in 10.0 mi WNW 15.0 mph 21.9 mph N/A   Overcast
6:35 AM 37.4 °F 27.5 °F 30.2 °F 75% 29.92 in 10.0 mi West 18.4 mph 24.2 mph N/A   Overcast
7:15 AM 37.4 °F 28.9 °F 30.2 °F 75% 29.89 in 10.0 mi West 13.8 mph 19.6 mph N/A   Overcast
7:35 AM 39.2 °F 31.6 °F 32.0 °F 75% 29.88 in 10.0 mi West 12.7 mph 19.6 mph N/A   Overcast
7:55 AM 39.2 °F 30.8 °F 32.0 °F 75% 29.87 in 10.0 mi West 15.0 mph - N/A   Overcast
8:15 AM 41.0 °F 31.6 °F 32.0 °F 70% 29.85 in 10.0 mi West 20.7 mph 29.9 mph N/A   Overcast
8:35 AM 39.2 °F 30.8 °F 32.0 °F 75% 29.85 in 10.0 mi West 15.0 mph 23.0 mph N/A   Overcast
8:55 AM 42.8 °F 33.8 °F 32.0 °F 66% 29.83 in 10.0 mi West 21.9 mph 27.6 mph N/A   Overcast
9:15 AM 42.8 °F 34.5 °F 32.0 °F 66% 29.83 in 10.0 mi West 18.4 mph 25.3 mph N/A   Overcast
9:35 AM 42.8 °F 35.1 °F 32.0 °F 66% 29.83 in 10.0 mi West 16.1 mph 26.5 mph N/A   Overcast
9:55 AM 42.8 °F 34.0 °F 30.2 °F 61% 29.82 in 10.0 mi West 20.7 mph 26.5 mph N/A   Overcast
10:15 AM 44.6 °F 35.9 °F 32.0 °F 61% 29.81 in 10.0 mi West 23.0 mph 33.4 mph N/A   Overcast
10:35 AM 44.6 °F 35.7 °F 32.0 °F 61% 29.84 in 10.0 mi WNW 24.2 mph 32.2 mph N/A   Overcast
10:55 AM 44.6 °F 35.5 °F 32.0 °F 61% 29.84 in 10.0 mi WNW 25.3 mph 32.2 mph N/A   Mostly Cloudy
11:15 AM 44.6 °F 35.9 °F 32.0 °F 61% 29.84 in 10.0 mi WNW 23.0 mph 29.9 mph N/A   Partly Cloudy
11:35 AM 44.6 °F 35.9 °F 33.8 °F 66% 29.84 in 10.0 mi WNW 23.0 mph 31.1 mph N/A   Clear
11:55 AM 44.6 °F 35.5 °F 32.0 °F 61% 29.85 in 10.0 mi NW 25.3 mph 29.9 mph N/A   Scattered Clouds
12:15 PM 44.6 °F 35.7 °F 33.8 °F 66% 29.85 in 10.0 mi NW 24.2 mph 32.2 mph N/A   Mostly Cloudy
12:35 PM 44.6 °F 35.7 °F 33.8 °F 66% 29.84 in 10.0 mi WNW 24.2 mph 31.1 mph N/A   Mostly Cloudy
12:55 PM 44.6 °F 36.4 °F 33.8 °F 66% 29.84 in 10.0 mi WNW 20.7 mph 28.8 mph N/A   Clear
1:15 PM 44.6 °F 35.9 °F 33.8 °F 66% 29.84 in 10.0 mi NW 23.0 mph 31.1 mph N/A   Clear
1:35 PM 44.6 °F 36.4 °F 33.8 °F 66% 29.85 in 10.0 mi NW 20.7 mph 27.6 mph N/A   Clear
1:55 PM 44.6 °F 37.2 °F 35.6 °F 71% 29.86 in 10.0 mi NW 17.3 mph 25.3 mph N/A   Clear
2:15 PM 44.6 °F 35.3 °F 33.8 °F 66% 29.87 in 10.0 mi NW 26.5 mph 36.8 mph N/A   Clear
2:35 PM 44.6 °F 36.4 °F 33.8 °F 66% 29.87 in 10.0 mi NW 20.7 mph 29.9 mph N/A   Clear
2:55 PM 42.8 °F 35.1 °F 33.8 °F 70% 29.88 in 10.0 mi NW 16.1 mph 26.5 mph N/A   Clear
3:15 PM 42.8 °F 34.5 °F 33.8 °F 70% 29.88 in 10.0 mi WNW 18.4 mph 27.6 mph N/A   Partly Cloudy
3:35 PM 42.8 °F 35.8 °F 33.8 °F 70% 29.89 in 10.0 mi WNW 13.8 mph - N/A   Mostly Cloudy
3:55 PM 41.0 °F 32.5 °F 33.8 °F 76% 29.88 in 10.0 mi WNW 17.3 mph 23.0 mph N/A   Overcast
4:15 PM 41.0 °F 33.1 °F 33.8 °F 76% 29.90 in 10.0 mi WNW 15.0 mph 24.2 mph N/A   Overcast
4:35 PM 39.2 °F 30.2 °F 33.8 °F 81% 29.91 in 10.0 mi NW 17.3 mph 21.9 mph N/A   Mostly Cloudy
4:55 PM 39.2 °F 30.5 °F 33.8 °F 81% 29.92 in 10.0 mi NW 16.1 mph 21.9 mph N/A   Overcast
5:15 PM 39.2 °F 30.2 °F 33.8 °F 81% 29.92 in 10.0 mi NW 17.3 mph 24.2 mph N/A   Overcast
5:35 PM 39.2 °F 29.6 °F 33.8 °F 81% 29.91 in 10.0 mi WNW 19.6 mph 26.5 mph N/A   Overcast
5:55 PM 39.2 °F 29.3 °F 33.8 °F 81% 29.90 in 10.0 mi WNW 20.7 mph 29.9 mph N/A   Overcast
6:15 PM 39.2 °F 29.0 °F 33.8 °F 81% 29.90 in 10.0 mi WNW 21.9 mph 28.8 mph N/A   Overcast
6:35 PM 39.2 °F 30.2 °F 33.8 °F 81% 29.92 in 10.0 mi NW 17.3 mph 26.5 mph N/A   Overcast
6:55 PM 39.2 °F 29.0 °F 33.8 °F 81% 29.92 in 10.0 mi WNW 21.9 mph 28.8 mph N/A   Overcast
7:15 PM 39.2 °F 29.6 °F 33.8 °F 81% 29.92 in 10.0 mi NW 19.6 mph 28.8 mph N/A   Overcast
7:35 PM 39.2 °F 29.3 °F 33.8 °F 81% 29.93 in 10.0 mi NW 20.7 mph 27.6 mph N/A   Overcast
7:55 PM 39.2 °F 29.6 °F 33.8 °F 81% 29.94 in 10.0 mi NW 19.6 mph 28.8 mph N/A   Overcast
8:15 PM 39.2 °F 29.0 °F 33.8 °F 81% 29.94 in 10.0 mi NW 21.9 mph 27.6 mph N/A   Overcast
8:35 PM 39.2 °F 29.8 °F 33.8 °F 81% 29.95 in 10.0 mi NW 18.4 mph 27.6 mph N/A   Mostly Cloudy
8:55 PM 39.2 °F 30.2 °F 33.8 °F 81% 29.96 in 10.0 mi NW 17.3 mph 25.3 mph N/A   Overcast
9:15 PM 39.2 °F 30.2 °F 33.8 °F 81% 29.96 in 10.0 mi NW 17.3 mph 21.9 mph N/A   Overcast
9:35 PM 39.2 °F 29.0 °F 33.8 °F 81% 29.97 in 10.0 mi NW 21.9 mph 27.6 mph N/A   Overcast
9:55 PM 39.2 °F 30.2 °F 33.8 °F 81% 29.99 in 10.0 mi NW 17.3 mph 25.3 mph N/A   Overcast
10:15 PM 39.2 °F 29.8 °F 33.8 °F 81% 29.99 in 10.0 mi NNW 18.4 mph 26.5 mph N/A   Overcast
10:35 PM 39.2 °F 30.8 °F 33.8 °F 81% 30.00 in 10.0 mi NNW 15.0 mph 21.9 mph N/A   Overcast
10:55 PM 37.4 °F 27.5 °F 33.8 °F 87% 30.02 in 10.0 mi NNW 18.4 mph 24.2 mph N/A   Overcast
11:15 PM 35.6 °F 25.2 °F 30.2 °F 81% 30.02 in 10.0 mi NNW 18.4 mph 24.2 mph N/A   Overcast
11:35 PM 35.6 °F 27.1 °F 30.2 °F 81% 30.03 in 10.0 mi NNW 12.7 mph - N/A   Overcast
11:55 PM 35.6 °F 27.1 °F 30.2 °F 81% 30.03 in 10.0 mi NNW 12.7 mph 18.4 mph N/A   Overcast